Location: Catstown
(52.4386°N, 7.2633°W)
Time: 12:47:08
(UTC+00:00)

Cosmos 2082 - Pass Details

Date: 18 September 2020
Orbit: 832 x 856 km, 71.0° (Epoch: 23 October)

Event Time Altitude Azimuth Distance (km) Brightness Sun altitude
Rises 19:04:31 0° 223° (SW) 3,371 7.3 -5.2°
Reaches altitude 10° 19:07:00 10° 227° (SW) 2,443 6.7 -5.5°
Maximum altitude 19:12:31 58° 307° (NW) 974 4.5 -6.4°
Drops below altitude 10° 19:18:06 10° 26° (NNE) 2,470 6.0 -7.2°
Sets 19:20:37 0° 31° (NNE) 3,412 6.7 -7.6°
